Location: Bittelbronn
(48.4454°N, 8.5870°E)
Time: 17:48:02
(UTC+00:00)

Cosmos 841 Rocket - Pass Details

Date: 23 May 2024
Orbit: 744 x 770 km, 74.0° (Epoch: 16 June)

Event Time Altitude Azimuth Distance (km) Brightness Sun altitude
Rises 00:24:34 0° 339° (NNW) 3,231 7.6 -19.5°
Reaches altitude 10° 00:26:59 10° 343° (NNW) 2,306 6.8 -19.4°
Maximum altitude 00:32:09 59° 63° (ENE) 882 4.0 -19.2°
Enters shadow 00:36:24 15° 141° (SE) 1,958 5.3 -19.0°
